User: anonymous   Login
Location: Unspecified
(0.0000°N, 0.0000°E)
Time: 11:23:47
(UTC+02:00)
Language:

H-2A R/B - Orbit

View from above orbital plane
View from above orbital plane
View from above satellite
View from above satellite

Ground track
Ground track

The orbit data is extracted from the following two-line orbital elements,

1 28932U 06002B   14295.80408281  .00005080  00000-0  51128-3 0  8390
2 28932 098.2837 162.0692 0093975 237.4871 257.6792 14.88421188473562
Epoch (UTC): 22 October 2014 19:17:52
Eccentricity: 0.0093975
inclination: 98.2837°
perigee height: 537 km
apogee height: 668 km
right ascension of ascending node: 162.0692°
argument of perigee: 237.4871°
revolutions per day: 14.88421188
mean anomaly at epoch: 257.6792°
orbit number at epoch: 47356

The dashed part of the orbit path shows where the satellite is in the earth's shadow,  

DLR